Location: Unspecified
(51.6250°N, 0.8230°E)
Time: 06:27:41
(UTC+00:00)

ISS - Pass Details

Date: 05 February 2021
Orbit: 417 x 422 km, 51.6° (Epoch: 02 March)

Event Time Altitude Azimuth Distance (km) Brightness Sun altitude
Rises 17:54:17 0° 282° (WNW) 2,375 1.4 -9.7°
Reaches altitude 10° 17:56:40 10° 267° (W) 1,508 0.6 -10.1°
Maximum altitude 17:59:21 22° 215° (SW) 978 -1.3 -10.5°
Drops below altitude 10° 18:02:02 10° 162° (SSE) 1,503 -1.0 -10.9°
Sets 18:04:25 0° 147° (SSE) 2,364 -0.2 -11.3°
